Location: Unspecified
(0.0000°N, 0.0000°E)
Time: 07:52:11
(UTC+02:00)

Cosmos 773 Rocket - Visible Passes

Search period start: 30 August 2015 00:00
Search period end: 09 September 2015 00:00
Orbit: 745 x 778 km, 74.1° (Epoch: 29 August)

Date Brightness Start Highest point End Pass type
(mag) Time Alt. Az. Time Alt. Az. Time Alt. Az.
30 Aug 6.9 21:18:58 10° WSW 21:22:31 18° WNW 21:25:50 10° NW visible
31 Aug 5.6 20:38:46 10° SW 20:43:33 39° WNW 20:48:18 10° N visible
01 Sep 6.1 07:28:38 10° NNE 07:33:17 33° ENE 07:38:00 10° SE visible
02 Sep 7.2 06:51:26 10° NE 06:54:17 15° ENE 06:57:27 10° ESE visible
02 Sep 7.7 21:07:11 10° W 21:07:42 10° WNW 21:07:43 10° WNW visible
03 Sep 6.8 20:24:33 10° SW 20:28:39 23° WNW 20:32:36 10° NNW visible
04 Sep 4.8 07:13:13 10° N 07:18:21 56° ENE 07:23:30 10° SSE visible
05 Sep 6.3 06:35:12 10° NNE 06:39:26 26° ENE 06:43:48 10° SE visible
06 Sep 7.2 05:58:51 10° ENE 06:00:24 12° ENE 06:02:23 10° E visible
07 Sep 4.0 06:58:08 10° NNW 07:03:25 86° WSW 07:08:40 10° S visible
08 Sep 5.2 06:19:35 10° N 06:24:32 43° ENE 06:29:30 10° SSE visible
